METEOR 2-11 DEB, 40318

Orbit data source: Space-Track

METEOR 2-11 DEB, 40318 is space debris in LEO originally from a launch on Thu, 05 Jul 1984 UTC launched from the Plesetsk Missile And Space Complex (PKMTR). Debris objects in space refer to the collection of defunct objects orbiting the Earth. Examples of debris include non-operational satellites, rocket bodies, and fragments generated from explosions, collisions, or faulty payload assembly.

Loading next visibility...
Identifier
40318, 1984-072D
Orbit
LEO
Country
Flag of CISCIS
Related business
Manufacturer
Unknown
Mission
Spacecraft
Bus & Motor
Unknown
Mass
Unknown
Launch date (UTC)
1984-07-05 (42 years ago)
Launch vehicle
Unknown
Launch site
Plesetsk Missile And Space Complex (PKMTR)
Object type
Payload
Rocket body
Debris
Shape & HBR
Unknown shape, 0.1 m
Radar Cross Section
Small (<0.1 m²)

Expand to show TLE details & history
Last TLE update: 4 days ago

TLE from 4 days ago
0 METEOR 2-11 DEB
1 40318U 84072D   26205.71155418  .00001965  00000-0  14202-2 0  9996
2 40318  82.5296 349.1881 0018049 258.8620 164.8223 13.96104306590459
Epoch: 2026-07-24T17:04Z
TLE epoch observation values (Epoch: 2026-07-24T17:04:38.281Z)
Latitude
62.85956°
Longitude
165.33608°
Altitude
930.805 km
Speed
7.386 km/s
True Right ascension
00h 15m 43s
True Declination
62° 43' 23"
Sunlit
Object was in daylight at epoch
Visualization orbit readout
Latitude
Unknown
Longitude
Unknown
Altitude
Unknown
Speed
Unknown
Apparent Right ascension
Unknown
Apparent Declination
Unknown
Sunlit
N/A
Visualization observer readout
Local Sidereal Time
07:21:32
Azimuth
Unknown
Elevation
Unknown
Doppler factor
Unknown
Orbital elements
Apogee altitude
917.597 km
Perigee altitude
891.308 km
Semi-major axis
7,282.59 km
Eccentricity
0.0018
Inclination
82.5296°
RAAN
349.1881°
Arg. of periapsis
258.862°
True anomaly
164.87633°
Mean anomaly
164.8223°
Eccentric anomaly
164.84933°
Mean motion
3.49232 °/min
Orbital period
103.08 mins
BSTAR
0.0014202
Loading maneuver chart data...
Computing Atmospheric mass density...
Loading historical data...
Loading historical data...
Loading historical data...
Loading historical data...
Loading historical data...
Loading historical data...
Loading historical data...

Documentation

Showing up to 5 results
|